Погода в Харбалахе

Россия / Республика Саха (Якутия)     62°11′46″N   134°15′05″E
темп.,
°C
ветер,
м/с
пор.,
м/с
влажн.,
%
обл.,
%
осадки,
мм/ч
давл.,
гПа
погр.,
м
27 февраля, сб
сб2700:00−34всв1110063 0.0 103419
03:00−35в1110048 0.0 103319
06:00−36всв119913 0.0 103219
09:00−32всв11967 0.0 103072
12:00−26всв128929 0.0 1029321
15:00−24всв249152 0.0 1026357
18:00−29св239624 0.0 102439
21:00−31св239421 0.0 102124
28 февраля, вс
вс2800:00−30св249391 0.0 101882
03:00−29св239095 0.0 101580
06:00−29св2289100 0.0 101539
09:00−27ссв0084100 0.0 101530
12:00−21ю1285100 0.0 1017312
15:00−20юз2391100 0.0 1018579
18:00−23юз2595100 0.0 1021181
21:00−26юз2597100 0.1 1023140
1 марта, пн
пн100:00−28ююз2298100 0.0 102338
03:00−28з2297100 0.1 102446
06:00−29зюз2297100 0.0 102574
09:00−28зюз1396100 0.1 1026194
12:00−25юз238599 0.0 1026737
15:00−25зюз238699 0.1 1025865
18:00−28з1295100 0.0 102719
21:00−30з119790 0.1 102719
2 марта, вт
вт200:00−31з119895 0.0 102719
03:00−33зюз119994 0.0 102619
06:00−34з129882 0.0 102719
09:00−31з119690 0.0 1026115
12:00−28з2290100 0.0 1025440
15:00−27з1292100 0.2 1025527
18:00−28з1198100 0.1 102619
21:00−29з1198100 0.1 102619
3 марта, ср
ср300:00−29з1198100 0.1 102619
03:00−30зюз0198100 0.1 102519
06:00−30з0198100 0.0 102419
09:00−29з0196100 0.1 1023129
12:00−26зсз1187100 0.0 1021546
15:00−25зсз1182100 0.1 1020791
18:00−30зсз1295100 0.0 101919
21:00−32зсз1298100 0.0 101819